Flag for U.S.A. Weather past 2 weeks in Hartford, Connecticut, U.S.A.

Now
31 °F

Light snow. Ice fog.


Feels Like: 24 °F
Forecast: 30 / 34 °F
Wind: 7 mph from North

Location: Hartford-Brainard Airport

Current Time: Dec 21, 2014 at 4:56:56 AM

Latest Report: Dec 21, 2014 at 3:53 AM


Visibility: 2 mi

Pressure: 30.27 "Hg

Humidity: 92%

Dew point: 29 °F

Location of HartfordLocation

Historic Weather in Hartford — Graph

°F

Hartford temperature yesterday

Maximum temperature yesterday: 33 °F (at 11:53 PM)
Minimum temperature yesterday: 26 °F (at 6:53 AM)
Average temperature yesterday: 29 °F

Past Weeks' High & Low Weather Summary

 TemperatureHumidityPressure
High51 °F (Dec 17, 12:53 PM)97% (Dec 6, 8:03 AM)30.75 "Hg (Dec 6, 8:03 AM)
Low18 °F (Dec 8, 6:53 AM)28% (Dec 7, 2:53 PM)29.49 "Hg (Dec 10, 2:53 PM)
Average34 °F74%30.02 "Hg
* Reported Dec 6 3:53 AM — Dec 21 3:53 AM, Hartford, Weather by CustomWeather, © 2014

Note: Actual official high and low records may vary slightly from our data, if they occured in-between our weather recording intervals... More about our weather records

Advertising

Hartford weather history for previous 24 hours

 ConditionsComfort  
Time TempWeatherWind HumidityBarometerVisibility
3:53 AM
Dec 21
31 °FLight snow. Ice fog.7 mph92%30.27 "Hg2 mi
2:53 AM31 °FLight snow. Ice fog.7 mph92%30.28 "Hg2 mi
2:02 AM32 °FLight snow. Ice fog.8 mph85%30.29 "Hg2 mi
1:53 AM32 °FLight snow. Overcast.7 mph82%30.28 "Hg4 mi
12:53 AM32 °FOvercast.6 mph82%30.28 "Hg10 mi
11:53 PM
Dec 20
33 °FOvercast.6 mph78%30.28 "Hg10 mi
11:04 PM32 °FMostly cloudy.6 mph75%30.29 "Hg10 mi
10:53 PM32 °FOvercast.5 mph75%30.29 "Hg10 mi
9:53 PM32 °FOvercast.6 mph66%30.29 "Hg10 mi
8:53 PM31 °FOvercast.5 mph67%30.28 "Hg10 mi
7:53 PM31 °FOvercast.3 mph69%30.28 "Hg10 mi
6:53 PM31 °FOvercast.3 mph67%30.29 "Hg10 mi
5:53 PM30 °FOvercast.7 mph72%30.28 "Hg10 mi
4:53 PM31 °FOvercast.3 mph64%30.27 "Hg10 mi
3:53 PM30 °FOvercast.6 mph66%30.27 "Hg10 mi
2:53 PM30 °FOvercast.5 mph66%30.27 "Hg10 mi
1:53 PM30 °FOvercast.3 mph66%30.27 "Hg10 mi
12:53 PM29 °FOvercast.7 mph66%30.27 "Hg10 mi
11:53 AM29 °FOvercast.6 mph66%30.28 "Hg10 mi
10:53 AM28 °FOvercast.7 mph69%30.29 "Hg10 mi
9:53 AM28 °FOvercast.10 mph69%30.29 "Hg10 mi
8:53 AM27 °FOvercast.7 mph72%30.29 "Hg10 mi
7:53 AM27 °FOvercast.8 mph69%30.29 "Hg10 mi
6:53 AM26 °FPassing clouds.6 mph71%30.28 "Hg10 mi
5:53 AM27 °FOvercast.8 mph69%30.26 "Hg10 mi
4:53 AM27 °FPassing clouds.7 mph69%30.22 "Hg10 mi
Weather by CustomWeather, © 2014

See weather overviewHow to use our weather pages